sat.trackr.live / text

‹ back to catalog

STARLINK-5831

NORAD 57332 · 2023-099E

PAYLOAD ACTIVE UNKNOWN

§ Identity

Operator
Country
US
Launch date
2023-07-16
Launch site
AFETR
Launch vehicle
Mass (kg)
RCS (m²)

Purposes: comms

External: N2YO · Heavens-Above · Gunter

§ Orbital elements

Epoch: 2026-09-20T21:49:12.740736Z

Period
94.27 min
Inclination
43.0016°
Eccentricity
0.0001379
Mean motion
15.27577211 rev/d
Perigee alt
482.1 km
Apogee alt
484.0 km
Semi-major
6,861.2 km
B*
5.3297e-6
RAAN
229.8309°
Arg perigee
265.5192°
Mean anomaly
94.5503°
Rev number
17,593

§ Raw data

STARLINK-58311 57332U 23099E   26263.90917524 -.00000115  00000+0  53297-5 0  99972 57332  43.0016 229.8309 0001379 265.5192  94.5503 15.27577211175938

JSON: /api/v1/satellites/57332 · /tle

For live sub-satellite position, see the globe view (requires WebGL).

§ Visibility from observer

Set your observer location to see the next 7 days of passes ≥ 10°. The values pass through the URL so the page stays shareable.

No JS? Fill the form by hand. The geolocation button needs JavaScript.